Home > Weather > Lakewood > Past weeks

Flag for USA Weather for the Past 2 Weeks in Lakewood, New Jersey, USA

Now
48 °F

Fog.


Feels Like: 44 °F
Forecast: 48 / 65 °F
Wind: 9 mph from East

Location: Lakehurst Naval Air Station

Current Time: May 1, 2016 at 10:14:14 PM

Latest Report: May 1, 2016 at 9:00 PM


Visibility: 2 mi

Pressure: 30.07 "Hg

Humidity: 93%

Dew Point: 46 °F

Location of LakewoodLocation

Historic Weather in Lakewood — Graph

°F

Lakewood Temperature Yesterday

Maximum temperature yesterday: 58 °F (at 1:00 PM)
Minimum temperature yesterday: 43 °F (at 10:00 PM)
Average temperature yesterday: 50 °F

High & Low Weather Summary for the Past Weeks

 TemperatureHumidityPressure
High84 °F (Apr 26, 2:00 PM)100% (Apr 23, 5:00 AM)30.45 "Hg (Apr 23, 5:00 AM)
Low29 °F (Apr 17, 4:00 AM)14% (Apr 17, 3:00 PM)29.57 "Hg (Apr 26, 3:00 PM)
Average55 °F62%30.04 "Hg
* Reported Apr 16 9:00 PM — May 1 9:00 PM, Lakewood, Weather by CustomWeather, © 2016

Note: Actual official high and low records may vary slightly from our data, if they occured in-between our weather recording intervals... More about our weather records

Advertising

Lakewood Weather History for the Previous 24 Hours

Scroll right to see more
 ConditionsComfort  
Time TempWeatherWind HumidityBarometerVisibility
9:00 PM
Sun, May 1
48 °FFog.9 mph93%30.07 "Hg2 mi
8:20 PM48 °FFog.10 mph96%30.06 "Hg2 mi
7:00 PM49 °FFog.14 mph97%30.06 "Hg1 mi
6:00 PM50 °FFog.9 mph96%30.06 "Hg1 mi
5:00 PM50 °FLight rain. Fog.9 mph96%30.08 "Hg1 mi
4:00 PM50 °FLight rain. Fog.8 mph93%30.09 "Hg1 mi
3:00 PM49 °FLight rain. Fog.8 mph97%30.12 "Hg4 mi
2:00 PM49 °FLight rain. Fog.9 mph93%30.11 "Hg4 mi
1:00 PM48 °FLight rain. Fog.12 mph94%30.14 "Hg2 mi
12:29 PM49 °FLight rain. Fog.10 mph93%30.15 "Hg4 mi
12:00 PM48 °FLight rain. Fog.9 mph94%30.16 "Hg2 mi
11:06 AM49 °FLight rain. Fog.9 mph90%30.17 "Hg3 mi
11:00 AM48 °FLight rain. Fog.8 mph94%30.18 "Hg3 mi
10:12 AM49 °FLight rain. Fog.8 mph93%30.18 "Hg3 mi
10:00 AM48 °FLight rain. Fog.6 mph94%30.19 "Hg2 mi
9:00 AM49 °FLight rain. Fog.7 mph90%30.20 "Hg3 mi
8:00 AM48 °FLight rain. Fog.6 mph89%30.19 "Hg6 mi
7:00 AM47 °FLight rain. Overcast.No wind90%30.20 "Hg9 mi
6:00 AM47 °FOvercast.No wind86%30.19 "Hg10 mi
5:00 AM47 °FOvercast.No wind86%30.18 "Hg10 mi
4:00 AM48 °FPassing clouds.3 mph80%30.17 "Hg10 mi
3:00 AM47 °FPassing clouds.No wind83%30.18 "Hg10 mi
2:00 AM48 °FPassing clouds.No wind77%30.20 "Hg10 mi
1:00 AM47 °FPassing clouds.No wind77%30.22 "Hg10 mi
12:00 AM47 °FClear.No wind74%30.23 "Hg10 mi
11:00 PM
Sat, Apr 30
46 °FClear.3 mph73%30.22 "Hg10 mi
10:00 PM43 °FClear.No wind79%30.24 "Hg10 mi
Weather by CustomWeather, © 2016

See weather overviewHow to use our weather pages